Location: Pardubice
(50.0618°N, 15.7556°E)
Time: 20:13:22
(UTC+02:00)

ISS - Pass Details

Date: 29 May 2018
Orbit: 402 x 406 km, 51.6° (Epoch: 22 June)

Event Time Altitude Azimuth Distance (km) Brightness Sun altitude
Rises 21:42:02 0° 273° (W) 2,323 0.8 -6.6°
Reaches altitude 10° 21:44:08 10° 277° (W) 1,462 -0.2 -6.8°
Maximum altitude 21:47:23 63° 359° (N) 455 -3.3 -7.2°
Drops below altitude 10° 21:50:38 10° 82° (E) 1,460 -1.3 -7.5°
Enters shadow 21:52:43 - 86° (E) 2,315 -0.4 -7.8°
